STARLINK-34718

Last updated on Tue Aug 26 2025 00:02:05 GMT+0000 (Coordinated Universal Time)

1 64911U 25157H 25237.58336806 .00001615 00000+0 50377-4 0 9997 2 64911 53.1607 187.8507 0001452 96.4521 135.5890 15.39605899 6035
UTC large
Height (km)
Speed (km/s)
/
Latitude / Longitude
Inclination (degrees)
Orbital Period (minutes)
Azimuth
Elevation
Range (km)
Doppler Factor

Next 0 passes for location: London (51.5072 / 0.1276)

Sorry there are no passes over London.
STARLINK-34718